EST,Max TemperatureF,Mean TemperatureF,Min TemperatureF,Max Dew PointF,MeanDew PointF,Min DewpointF,Max Humidity, Mean Humidity, Min Humidity, Max Sea Level PressureIn, Mean Sea Level PressureIn, Min Sea Level PressureIn, Max VisibilityMiles, Mean VisibilityMiles, Min VisibilityMiles, Max Wind SpeedMPH, Mean Wind SpeedMPH, Max Gust SpeedMPH,PrecipitationIn, CloudCover, Events, WindDirDegrees
2013-1-1,35,27,18,25,13,1,65,49,37,29.94,29.79,29.71,10,10,10,20,11,32,0.05,3,,276
2013-1-2,27,18,8,11,4,-8,64,52,43,30.13,29.99,29.91,10,10,10,17,8,26,0.00,2,,281
2013-1-3,25,15,5,5,-4,-9,59,45,27,30.15,30.09,30.00,10,10,10,10,7,18,0.00,1,,282
2013-1-4,37,28,19,22,17,7,69,58,48,29.97,29.89,29.80,10,10,10,17,8,24,0.00,4,,221
2013-1-5,41,31,21,21,17,13,75,53,35,30.27,30.10,29.83,10,10,10,17,10,26,0.00,1,,280
2013-1-6,42,32,21,26,23,14,81,69,51,30.23,30.05,29.95,10,9,1,13,3,,0.00,5,Snow,225
2013-1-7,37,29,21,28,19,11,78,61,40,30.41,30.25,29.99,10,10,10,14,5,24,0.00,1,,288
2013-1-8,45,36,26,25,24,21,85,64,44,30.38,30.32,30.27,10,10,7,15,6,22,0.00,0,,223
2013-1-9,45,35,26,32,25,21,85,66,46,30.41,30.22,29.99,10,9,5,23,3,33,0.00,1,,217
2013-1-10,46,40,33,25,22,20,64,46,39,30.55,30.33,30.03,10,10,10,22,13,39,0.00,0,,299
2013-1-11,41,34,26,36,27,20,89,72,57,30.53,30.40,30.25,10,9,3,5,1,,0.13,4,Rain,144
2013-1-12,44,42,39,41,38,36,93,89,85,30.24,30.18,30.14,10,2,0,6,2,,0.00,8,Fog-Rain,202
2013-1-13,52,47,42,47,43,39,93,88,82,30.17,30.10,29.99,10,4,0,13,4,,0.00,8,Fog,211
2013-1-14,62,52,41,49,41,23,89,67,36,30.27,30.04,29.88,10,10,8,15,9,28,0.00,4,,260
2013-1-15,42,38,33,24,22,21,64,54,45,30.33,30.28,30.24,10,10,10,7,4,,0.00,3,,338
2013-1-16,34,32,30,31,29,22,93,86,64,30.25,29.99,29.83,10,3,0,8,2,,0.01,8,Fog-Rain-Snow,2
2013-1-17,42,36,28,30,23,6,89,66,38,30.12,29.98,29.83,10,10,9,15,8,22,0.41,1,,260
2013-1-18,28,22,15,4,-2,-6,50,37,27,30.45,30.33,30.11,10,10,10,16,9,26,0.00,2,,290
2013-1-19,46,34,23,29,19,5,65,49,39,30.37,30.10,29.88,10,10,10,21,10,29,0.00,3,,211
2013-1-20,54,42,28,30,22,9,65,47,29,29.92,29.72,29.52,10,10,10,24,12,37,0.00,2,,244
2013-1-21,28,24,21,19,10,-1,93,57,35,30.10,29.97,29.81,10,8,2,18,8,25,0.01,5,Snow,244
2013-1-22,25,20,12,18,9,-3,86,64,34,30.08,29.87,29.77,10,10,4,17,6,28,0.00,4,Snow,292
2013-1-23,16,12,6,-1,-12,-16,56,36,24,30.15,30.11,30.07,10,10,10,22,10,28,0.00,0,,291
2013-1-24,19,10,1,-12,-13,-14,47,34,22,30.23,30.13,30.07,10,10,10,22,11,33,0.00,0,,299
2013-1-25,23,16,9,7,-9,-12,62,33,21,30.30,30.21,30.09,10,10,8,15,10,23,0.00,2,Snow,290
2013-1-26,24,18,12,10,2,-11,80,54,25,30.23,30.09,30.03,10,9,2,17,7,25,0.00,2,Snow,317
2013-1-27,30,22,14,1,-3,-7,56,36,20,30.47,30.38,30.24,10,10,10,16,10,32,0.00,0,,300
2013-1-28,32,26,19,23,14,-3,88,65,26,30.46,30.21,30.05,10,5,0,7,2,,0.14,7,Snow,20
2013-1-29,36,30,24,31,24,21,89,81,70,30.21,30.14,30.04,10,8,2,8,3,,0.02,8,Rain-Snow,1
2013-1-30,62,48,33,55,43,30,94,86,75,30.15,29.85,29.46,10,4,0,17,3,32,0.07,8,Fog-Rain,196
2013-1-31,62,47,30,57,37,12,87,65,35,29.57,29.25,28.97,10,8,2,32,18,53,0.31,5,Rain,236